Flag for Cayman Islands Weather past 2 weeks in George Town, Cayman Islands

Now
77 °F

Partly sunny.


Feels Like: 78 °F
Forecast: N/A
Wind: 5 mph from Southeast

Location: Owen Roberts Airportgrand Cayman

Current Time: Oct 21, 2014 at 5:35:22 PM

Latest Report: Oct 21, 2014 at 5:00 PM


Visibility: N/A

Pressure: 29.83 "Hg

Humidity: 94%

Dew point: 75 °F

Location of George TownLocation

Historic Weather in George Town — Graph

°F

George Town temperature yesterday

Maximum temperature yesterday: 90 °F (at 1:00 PM)
Minimum temperature yesterday: 81 °F (at 6:00 AM)
Average temperature yesterday: 86 °F

Past Weeks' High & Low Weather Summary

 TemperatureHumidityPressure
High91 °F (Oct 9, 3:00 PM)100% (Oct 18, 5:53 AM)30.01 "Hg (Oct 18, 5:53 AM)
Low77 °F (Oct 18, 5:53 AM)66% (Oct 7, 10:00 AM)29.80 "Hg (Oct 21, 4:00 PM)
Average85 °F80%29.92 "Hg
* Reported Oct 6 4:00 PM — Oct 21 4:00 PM, George Town, Weather by CustomWeather, © 2014

Note: Actual official high and low records may vary slightly from our data, if they occured in-between our weather recording intervals... More about our weather records

Advertising

George Town weather history for previous 24 hours

 ConditionsComfort  
Time TempWeatherWind HumidityBarometerVisibility
4:00 PM
Oct 21
84 °FPassing clouds.12 mph79%29.80 "HgN/A
3:00 PM86 °FPassing clouds.14 mph75%29.83 "HgN/A
2:00 PM88 °FPassing clouds.15 mph66%29.83 "HgN/A
12:54 PM86 °FPassing clouds.14 mph66%29.86 "HgN/A
11:53 AM86 °FPassing clouds.9 mph75%29.89 "Hg6 mi
10:54 AM86 °FSprinkles. Scattered clouds.12 mph79%29.92 "Hg6 mi
9:59 AM86 °FPassing clouds.N/A75%29.92 "HgN/A
8:50 AM86 °FPassing clouds.12 mph75%29.89 "HgN/A
7:50 AM84 °FPassing clouds.8 mph79%29.89 "HgN/A
6:52 AM79 °FSprinkles. Passing clouds.9 mph89%29.89 "HgN/A
5:53 AM82 °FThunderstorms. Passing clouds.7 mph84%29.86 "HgN/A
9:50 PM
Oct 20
84 °FPassing clouds.8 mph79%29.92 "HgN/A
8:50 PM84 °FPassing clouds.8 mph79%29.92 "HgN/A
7:54 PM84 °FPassing clouds.9 mph84%29.89 "HgN/A
6:52 PM84 °FPassing clouds.8 mph79%29.86 "HgN/A
5:50 PM84 °FPassing clouds.9 mph74%29.86 "HgN/A
5:00 PM88 °FScattered clouds.12 mph66%29.83 "HgN/A
Weather by CustomWeather, © 2014

See weather overviewHow to use our weather pages